Location: Central Coast NSW, Australia
(33.2407°S, 151.4316°E)
Time: 01:36:14
(UTC+11:00)

N. Korean satellite - Visible Passes

Search period start: 17 October 2019 00:00
Search period end: 27 October 2019 00:00
Orbit: 455 x 508 km, 97.2° (Epoch: 15 October)

Date Brightness Start Highest point End Pass type
(mag) Time Alt. Az. Time Alt. Az. Time Alt. Az.
17 Oct 9.8 19:30:14 10° SSW 19:32:59 21° WSW 19:35:41 10° WNW visible
19 Oct 9.0 05:35:28 10° NE 05:38:47 30° ESE 05:42:08 10° SSE visible
20 Oct 10.2 05:11:31 10° ENE 05:13:41 15° ESE 05:15:52 10° SE visible
20 Oct 10.4 19:48:49 10° SW 19:50:18 12° WSW 19:51:47 10° W visible
23 Oct 9.5 05:27:58 10° NE 05:31:03 24° ESE 05:34:08 10° SSE visible
24 Oct 10.5 05:04:30 10° E 05:05:57 12° ESE 05:07:24 10° SE visible
24 Oct 10.1 19:40:26 10° SSW 19:42:32 15° WSW 19:44:36 10° WNW visible
